Torna al catalogo

PSLV R/B

AttivoPO
NORAD 51659·ROCKET BODY·🇮🇳 India

Lanciato Feb 14, 2022 da Satish Dhawan Space Centre

Loading…

Prossimi Passaggi (prossime 24 ore)

TLE

AggiornatoSource: Space-Track

Epoca: Sep 14, 2026, 03:29 UTC

1 51659U 22013D   26257.14531407  .00209966  19317-4  52180-3 0  9997
2 51659  97.4163 323.7069 0005585 151.6827 208.4754 15.95850183256784

Traccia PSLV R/B in tempo reale con AllMySat

Download on the App Store